Tracking 19832 objects as of 24-Aug-2019
HD Live streaming from Space Station
objects crossing your sky now

COSMOS 1974

Track COSMOS 1974 now!
COSMOS 1974 is classified as:


NORAD ID: 19554
Int'l Code: 1988-092A
Perigee: 6,431.7 km
Apogee: 33,929.6 km
Inclination: 69.9 °
Period: 717.6 minutes
Semi major axis: 26551 km
RCS: 16.1296 m2 (large)
Launch date: October 3, 1988
Source: Commonwealth of Independent States (former USSR) (CIS)
Launch site: PLESETSK MISSILE AND SPACE COMPLEX (PKMTR)
aabbcc
Your satellite tracking list
Your tracking list is empty




NASA's NSSDC Master Catalog

Two Line Element Set (TLE):
1 19554U 88092A   19235.44620265 -.00000584 +00000-0 +00000-0 0  9998
2 19554 069.9047 279.3610 5178193 130.5622 288.0264 02.00662582226205
Source of the keplerian elements: AFSPC